Cadillac, MI

8:59 AM EDT on August 19, 2019 (GMT -0400)
Wexford County

Weather History for KCAD - July, 2019

Change the Weather History Date:

Monday, July 22, 2019

  Actual Average Record
Temperature  
Mean Temperature 66 °F -  
Max Temperature 75 °F 78 °F 91 °F (2001)
Min Temperature 57 °F 54 °F 39 °F (1985)
Cooling Degree Days 1    
Growing Degree Days 16 (Base 50)    
Moisture  
Dew Point 48 °F    
Average Humidity 57    
Maximum Humidity 88    
Minimum Humidity 26    
Precipitation  
Precipitation 0.00 in - - ()
Sea Level Pressure  
Sea Level Pressure 30.03 in    
Wind  
Wind Speed 6 mph (NNW)    
Max Wind Speed 17 mph    
Max Gust Speed 23 mph    
Visibility 10 miles    
Events      
Averages and records for this station are not official NWS values.
T = Trace of Precipitation, MM = Missing Value Source: NWS Daily Summary

Daily Weather History Graph

Daily Weather History Graph

Search for Another Location

Airport or City:

Astronomy

Jul. 22, 2019 Rise Set
Actual Time 6:18 AM EDT 9:17 PM EDT
Civil Twilight 5:43 AM EDT 9:51 PM EDT
Nautical Twilight 4:59 AM EDT 10:35 PM EDT
Astronomical Twilight 4:07 AM EDT 11:27 PM EDT
Moon 12:03 AM EDT (7/22) 11:44 AM EDT (7/22)
Length of Visible Light 16h 07m
Length of Day
14h 59m
Waning Gibbous, 72% of the Moon is Illuminated
Jul 22
Waning Gibbous
Jul 24
Last Quarter
Jul 31
New
Aug 7
First Quarter
Aug 15
Full

Hourly Weather History & Observations

Time (EDT) Temp. Dew Point Humidity Pressure Visibility Wind Dir Wind Speed Gust Speed Precip Events Conditions
12:15 AM 63.1 °F 53.1 °F 70% 30.03 in 10.0 mi North 4.6 mph - N/A   Clear
12:16 AM 63.1 °F 53.1 °F 70% 30.03 in 10.0 mi North 4.6 mph - N/A   Clear
12:35 AM 62.2 °F 52.7 °F 71% 30.03 in 10.0 mi North 3.5 mph - N/A   Clear
12:40 AM 62.1 °F 52.3 °F 70% 30.03 in 10.0 mi North 3.5 mph - N/A   Clear
12:58 AM 61.5 °F 52.5 °F 72% 30.02 in 10.0 mi North 4.6 mph - N/A   Clear
1:16 AM 61.5 °F 52.3 °F 72% 30.02 in 10.0 mi North 3.5 mph - N/A   Clear
1:35 AM 61.2 °F 52.7 °F 74% 30.02 in 10.0 mi Calm Calm - N/A   Clear
1:36 AM 61.2 °F 52.7 °F 74% 30.02 in 10.0 mi Calm Calm - N/A   Clear
1:55 AM 60.8 °F 52.3 °F 74% 30.02 in 10.0 mi NNW 5.8 mph - N/A   Clear
1:56 AM 60.8 °F 52.3 °F 74% 30.02 in 10.0 mi NNW 4.6 mph - N/A   Clear
2:19 AM 59.7 °F 53.6 °F 80% 30.02 in 10.0 mi NNW 4.6 mph - N/A   Clear
2:37 AM 59.9 °F 52.9 °F 78% 30.02 in 10.0 mi NNW 4.6 mph - N/A   Clear
2:55 AM 60.3 °F 52.2 °F 75% 30.02 in 10.0 mi NNW 4.6 mph - N/A   Clear
2:56 AM 60.3 °F 52.2 °F 75% 30.02 in 10.0 mi NNW 4.6 mph - N/A   Clear
3:15 AM 59.9 °F 52.5 °F 77% 30.02 in 10.0 mi NNW 4.6 mph - N/A   Clear
3:16 AM 59.9 °F 52.5 °F 77% 30.02 in 10.0 mi NNW 4.6 mph - N/A   Clear
3:35 AM 59.5 °F 53.4 °F 80% 30.02 in 10.0 mi NNW 5.8 mph - N/A   Clear
3:58 AM 59.0 °F 53.6 °F 82% 30.02 in 10.0 mi NNW 4.6 mph - N/A   Clear
4:16 AM 58.6 °F 54.0 °F 84% 30.02 in 10.0 mi NNW 4.6 mph - N/A   Clear
4:35 AM 58.5 °F 54.5 °F 87% 30.03 in 10.0 mi NNW 4.6 mph - N/A   Clear
4:36 AM 58.5 °F 54.5 °F 87% 30.03 in 10.0 mi NNW 4.6 mph - N/A   Clear
4:55 AM 58.3 °F 54.5 °F 87% 30.02 in 10.0 mi North 3.5 mph - N/A   Clear
4:56 AM 58.3 °F 54.5 °F 87% 30.02 in 10.0 mi NNW 4.6 mph - N/A   Clear
5:19 AM 57.7 °F 54.3 °F 88% 30.02 in 10.0 mi NNW 4.6 mph - N/A   Clear
5:37 AM 57.4 °F 53.6 °F 87% 30.03 in 10.0 mi NW 6.9 mph - N/A   Clear
5:55 AM 57.7 °F 52.3 °F 82% 30.02 in 10.0 mi NNW 3.5 mph - N/A   Clear
6:15 AM 57.7 °F 51.1 °F 78% 30.02 in 10.0 mi NNW 5.8 mph - N/A   Clear
6:16 AM 57.7 °F 51.1 °F 78% 30.02 in 10.0 mi NNW 6.9 mph - N/A   Clear
6:35 AM 57.7 °F 50.5 °F 77% 30.02 in 10.0 mi NNW 6.9 mph - N/A   Clear
6:36 AM 57.7 °F 50.5 °F 77% 30.02 in 10.0 mi NNW 5.8 mph - N/A   Clear
6:55 AM 57.7 °F 50.4 °F 76% 30.01 in 10.0 mi NNW 6.9 mph - N/A   Clear
7:00 AM 57.7 °F 50.4 °F 76% 30.02 in 10.0 mi NNW 5.8 mph - N/A   Scattered Clouds
7:18 AM 57.9 °F 50.4 °F 76% 30.01 in 10.0 mi NNW 8.1 mph - N/A   Mostly Cloudy
7:36 AM 58.3 °F 50.5 °F 75% 30.02 in 10.0 mi NNW 4.6 mph - N/A   Mostly Cloudy
7:55 AM 58.5 °F 50.9 °F 76% 30.02 in 10.0 mi NNW 5.8 mph - N/A   Scattered Clouds
7:56 AM 58.5 °F 51.1 °F 76% 30.02 in 10.0 mi NNW 5.8 mph - N/A   Scattered Clouds
8:15 AM 58.6 °F 51.8 °F 78% 30.03 in 10.0 mi NNW 9.2 mph - N/A   Clear
8:16 AM 58.6 °F 51.6 °F 77% 30.03 in 10.0 mi NNW 9.2 mph - N/A   Clear
8:39 AM 59.7 °F 52.3 °F 77% 30.04 in 10.0 mi NNW 8.1 mph - N/A   Clear
8:57 AM 62.1 °F 52.7 °F 71% 30.04 in 10.0 mi NNW 10.4 mph 16.1 mph N/A   Clear
9:15 AM 63.1 °F 52.3 °F 68% 30.04 in 10.0 mi North 9.2 mph - N/A   Clear
9:35 AM 65.3 °F 52.7 °F 64% 30.04 in 10.0 mi North 6.9 mph - N/A   Clear
9:36 AM 65.5 °F 52.7 °F 63% 30.04 in 10.0 mi North 9.2 mph - N/A   Clear
9:55 AM 66.7 °F 52.0 °F 59% 30.05 in 10.0 mi North 8.1 mph - N/A   Clear
9:59 AM 67.3 °F 52.7 °F 59% 30.05 in 10.0 mi NNW 10.4 mph - N/A   Clear
10:18 AM 68.5 °F 51.4 °F 54% 30.04 in 10.0 mi North 8.1 mph - N/A   Clear
10:36 AM 69.4 °F 50.9 °F 52% 30.04 in 10.0 mi North 8.1 mph 16.1 mph N/A   Clear
10:55 AM 70.9 °F 50.4 °F 48% 30.04 in 10.0 mi North 8.1 mph - N/A   Scattered Clouds
10:56 AM 70.7 °F 50.4 °F 48% 30.04 in 10.0 mi North 10.4 mph - N/A   Scattered Clouds
11:15 AM 71.4 °F 49.6 °F 46% 30.04 in 10.0 mi NNE 8.1 mph - N/A   Scattered Clouds
11:39 AM 72.0 °F 46.6 °F 40% 30.04 in 10.0 mi NNW 10.4 mph 18.4 mph N/A   Clear
11:57 AM 73.4 °F 46.4 °F 38% 30.04 in 10.0 mi NNE 8.1 mph - N/A   Clear
12:15 PM 72.1 °F 45.7 °F 39% 30.04 in 10.0 mi North 8.1 mph 18.4 mph N/A   Clear
12:35 PM 72.7 °F 45.5 °F 38% 30.04 in 10.0 mi North 12.7 mph 16.1 mph N/A   Clear
12:55 PM 73.4 °F 46.2 °F 38% 30.04 in 10.0 mi North 8.1 mph 17.3 mph N/A   Scattered Clouds
12:59 PM 73.2 °F 46.2 °F 38% 30.04 in 10.0 mi NNW 15.0 mph - N/A   Scattered Clouds
1:17 PM 74.3 °F 45.7 °F 36% 30.04 in 10.0 mi NNW 10.4 mph 17.3 mph N/A   Clear
1:35 PM 73.6 °F 41.2 °F 31% 30.04 in 10.0 mi North 9.2 mph 20.7 mph N/A   Clear
1:55 PM 73.4 °F 39.7 °F 30% 30.04 in 10.0 mi NNW 16.1 mph 23.0 mph N/A   Clear
1:56 PM 73.6 °F 39.4 °F 29% 30.04 in 10.0 mi NNW 17.3 mph 23.0 mph N/A   Clear
2:15 PM 74.1 °F 39.6 °F 29% 30.04 in 10.0 mi North 6.9 mph 18.4 mph N/A   Clear
2:19 PM 74.5 °F 41.2 °F 30% 30.04 in 10.0 mi North 12.7 mph 18.4 mph N/A   Clear
2:38 PM 74.7 °F 42.4 °F 31% 30.04 in 10.0 mi NNW 12.7 mph 17.3 mph N/A   Clear
2:56 PM 74.1 °F 41.9 °F 31% 30.04 in 10.0 mi North 10.4 mph 17.3 mph N/A   Clear
3:15 PM 74.7 °F 40.8 °F 30% 30.04 in 10.0 mi NNW 10.4 mph 18.4 mph N/A   Clear
3:35 PM 75.4 °F 40.8 °F 29% 30.04 in 10.0 mi NNE 10.4 mph - N/A   Clear
3:36 PM 75.4 °F 40.6 °F 29% 30.04 in 10.0 mi North 11.5 mph - N/A   Clear
3:59 PM 74.8 °F 40.3 °F 29% 30.04 in 10.0 mi NNE 12.7 mph 18.4 mph N/A   Clear
4:17 PM 75.2 °F 40.8 °F 29% 30.03 in 10.0 mi NNW 11.5 mph - N/A   Clear
4:35 PM 74.8 °F 41.2 °F 30% 30.03 in 10.0 mi NW 13.8 mph 19.6 mph N/A   Clear
4:55 PM 74.3 °F 39.4 °F 28% 30.04 in 10.0 mi North 9.2 mph 20.7 mph N/A   Clear
4:56 PM 74.3 °F 39.2 °F 28% 30.04 in 10.0 mi NNW 9.2 mph 20.7 mph N/A   Clear
5:15 PM 74.5 °F 39.6 °F 28% 30.04 in 10.0 mi North 9.2 mph 17.3 mph N/A   Clear
5:38 PM 74.8 °F 39.9 °F 28% 30.04 in 10.0 mi North 9.2 mph 19.6 mph N/A   Clear
5:56 PM 74.5 °F 41.0 °F 30% 30.04 in 10.0 mi NNW 13.8 mph 18.4 mph N/A   Clear
6:15 PM 73.6 °F 37.9 °F 27% 30.04 in 10.0 mi North 8.1 mph - N/A   Clear
6:16 PM 73.4 °F 37.9 °F 28% 30.04 in 10.0 mi North 5.8 mph - N/A   Clear
6:35 PM 73.8 °F 38.8 °F 28% 30.03 in 10.0 mi North 6.9 mph - N/A   Clear
6:36 PM 73.6 °F 38.8 °F 28% 30.03 in 10.0 mi North 6.9 mph - N/A   Clear
6:59 PM 73.4 °F 36.3 °F 26% 30.03 in 10.0 mi North 6.9 mph - N/A   Clear
7:17 PM 72.7 °F 38.8 °F 29% 30.04 in 10.0 mi NNW 5.8 mph - N/A   Clear
7:35 PM 72.9 °F 40.5 °F 31% 30.04 in 10.0 mi NNW 5.8 mph - N/A   Clear
7:36 PM 72.9 °F 40.5 °F 31% 30.04 in 10.0 mi NW 5.8 mph - N/A   Clear
7:55 PM 72.1 °F 40.8 °F 32% 30.04 in 10.0 mi NNW 5.8 mph - N/A   Clear
7:56 PM 72.1 °F 41.0 °F 32% 30.04 in 10.0 mi NNW 4.6 mph - N/A   Clear
8:15 PM 70.7 °F 43.2 °F 37% 30.05 in 10.0 mi NNW 3.5 mph - N/A   Clear
8:20 PM 70.3 °F 43.7 °F 38% 30.05 in 10.0 mi NNW 3.5 mph - N/A   Scattered Clouds
8:38 PM 68.5 °F 45.5 °F 44% 30.05 in 10.0 mi NW 3.5 mph - N/A   Clear
8:56 PM 67.1 °F 45.7 °F 46% 30.05 in 10.0 mi WNW 3.5 mph - N/A   Scattered Clouds
9:15 PM 65.3 °F 46.6 °F 51% 30.05 in 10.0 mi WNW 3.5 mph - N/A   Scattered Clouds
9:16 PM 65.1 °F 46.6 °F 51% 30.05 in 10.0 mi WNW 3.5 mph - N/A   Scattered Clouds
9:35 PM 62.8 °F 47.8 °F 58% 30.05 in 10.0 mi Calm Calm - N/A   Scattered Clouds
9:59 PM 61.7 °F 48.7 °F 62% 30.05 in 10.0 mi NW 3.5 mph - N/A   Scattered Clouds
10:17 PM 60.3 °F 49.5 °F 68% 30.05 in 10.0 mi Calm Calm - N/A   Clear
10:35 PM 59.0 °F 50.2 °F 73% 30.06 in 10.0 mi WNW 3.5 mph - N/A   Clear
10:36 PM 58.8 °F 50.2 °F 73% 30.06 in 10.0 mi WNW 3.5 mph - N/A   Clear
10:55 PM 58.6 °F 49.8 °F 72% 30.06 in 10.0 mi NW 3.5 mph - N/A   Clear
11:15 PM 57.9 °F 49.8 °F 74% 30.06 in 10.0 mi NW 3.5 mph - N/A   Clear
11:38 PM 57.2 °F 49.6 °F 76% 30.06 in 10.0 mi NW 3.5 mph - N/A   Clear
11:56 PM 57.4 °F 49.8 °F 76% 30.06 in 10.0 mi NW 4.6 mph - N/A   Clear